Cedar Rapids, IA

5:51 PM CDT on May 24, 2017 (GMT -0500)
The Eastern Iowa Airport

Weather History for KCID - November, 2013

Change the Weather History Date:

Wednesday, November 6, 2013

  Actual Average Record
Temperature  
Mean Temperature 42 °F 42 °F  
Max Temperature 57 °F 52 °F 76 °F (1916)
Min Temperature 26 °F 33 °F 10 °F (1959)
Degree Days  
Heating Degree Days 23 23  
Month to date heating degree days 118 129  
Since 1 July heating degree days 645 739  
Cooling Degree Days 0 0  
Month to date cooling degree days 0 0  
Year to date cooling degree days 884 748  
Moisture  
Dew Point 30 °F    
Average Humidity 73    
Maximum Humidity 100    
Minimum Humidity 45    
Precipitation  
Precipitation 0.16 in 0.07 in 0.97 in (2000)
Month to date precipitation 0.73 0.44  
Year to date precipitation 35.28 31.52  
Sea Level Pressure  
Sea Level Pressure 30.00 in    
Wind  
Wind Speed 15 mph (WNW)    
Max Wind Speed 25 mph    
Max Gust Speed 32 mph    
Visibility 9 miles    
Events Rain    
T = Trace of Precipitation, MM = Missing Value Source: NWS Daily Summary

Daily Weather History Graph

Daily Weather History Graph

Search for Another Location

Airport or City:

Trip Planner

Search our weather history database for the weather conditions in past years. The results will help you decide how hot, cold, wet, or windy it might be!

Date:

Astronomy

Nov. 06, 2013 Rise Set
Actual Time 6:45 AM CST 4:54 PM CST
Civil Twilight 6:16 AM CST 5:24 PM CST
Nautical Twilight 5:43 AM CST 5:57 PM CST
Astronomical Twilight 5:10 AM CST 6:29 PM CST
Moon 10:02 AM CST (11/6) 7:58 PM CST (11/6)
Length of Visible Light 11h 07m
Length of Day
10h 09m
Waxing Crescent, 14% of the Moon is Illuminated
Nov 6
Waxing Crescent
Nov 9
First Quarter
Nov 17
Full
Nov 25
Last Quarter
Dec 2
New

Hourly Weather History & Observations

Time (CST) Temp. Windchill Dew Point Humidity Pressure Visibility Wind Dir Wind Speed Gust Speed Precip Events Conditions
12:52 AM 55.9 °F - - N/A% 29.79 in 8.0 mi South 16.1 mph - 0.00 in Rain Light Rain
1:28 AM 57.2 °F - - N/A% 29.77 in 2.0 mi South 15.0 mph 24.2 mph 0.06 in Rain Rain
1:36 AM 55.4 °F - - N/A% 29.77 in 6.0 mi South 13.8 mph - 0.06 in Rain Light Rain
1:52 AM 57.0 °F - - N/A% 29.76 in 5.0 mi South 11.5 mph 21.9 mph 0.09 in Rain Light Rain
2:50 AM 50.0 °F - - N/A% 29.77 in 3.0 mi WNW 20.7 mph 28.8 mph 0.06 in Rain Rain
2:52 AM 48.9 °F - - N/A% 29.78 in 3.0 mi WNW 18.4 mph 28.8 mph 0.06 in Rain Light Rain
2:59 AM 48.2 °F - - N/A% 29.77 in 8.0 mi WNW 17.3 mph - 0.00 in Rain Light Rain
3:52 AM 43.0 °F 34.5 °F - N/A% 29.79 in 10.0 mi NW 19.6 mph 26.5 mph 0.01 in Rain Light Rain
4:52 AM 41.0 °F 33.1 °F 39.2 °F 93% 29.85 in 8.0 mi NW 15.0 mph 25.3 mph 0.00 in Rain Light Rain
5:52 AM 39.2 °F 29.6 °F 35.6 °F 87% 29.86 in 10.0 mi NNW 19.6 mph 26.5 mph 0.00 in   Overcast
6:52 AM 37.9 °F 29.2 °F 35.6 °F 91% 29.91 in 10.0 mi NNW 15.0 mph - N/A   Overcast
7:40 AM 37.4 °F 26.4 °F 35.6 °F 93% 29.93 in 10.0 mi NNW 23.0 mph - N/A   Overcast
7:52 AM 37.9 °F 27.9 °F 35.6 °F 91% 29.96 in 10.0 mi NNW 19.6 mph 28.8 mph N/A   Overcast
8:52 AM 37.9 °F 27.1 °F 35.6 °F 91% 29.98 in 10.0 mi NNW 23.0 mph 28.8 mph N/A   Overcast
9:52 AM 39.0 °F 30.6 °F 39.0 °F 100% 30.01 in 10.0 mi NNW 15.0 mph - N/A   Mostly Cloudy
10:52 AM 41.0 °F 31.9 °F 35.1 °F 79% 30.05 in 10.0 mi NNW 19.6 mph 26.5 mph N/A   Overcast
11:52 AM 44.1 °F 35.4 °F 35.1 °F 71% 30.06 in 10.0 mi NNW 21.9 mph 27.6 mph N/A   Mostly Cloudy
12:52 PM 44.1 °F 35.7 °F 33.1 °F 65% 30.06 in 10.0 mi NW 20.7 mph 26.5 mph N/A   Scattered Clouds
1:52 PM 45.0 °F 37.4 °F 28.9 °F 53% 30.08 in 10.0 mi NW 18.4 mph 26.5 mph N/A   Clear
2:52 PM 45.0 °F 36.6 °F 26.1 °F 48% 30.11 in 10.0 mi NW 21.9 mph 26.5 mph N/A   Clear
3:52 PM 44.1 °F 36.8 °F 25.0 °F 47% 30.14 in 10.0 mi NNW 16.1 mph - N/A   Clear
4:52 PM 39.9 °F 33.4 °F 24.1 °F 53% 30.17 in 10.0 mi NW 10.4 mph - N/A   Clear
5:52 PM 34.0 °F 27.2 °F 26.1 °F 73% 30.20 in 10.0 mi WNW 8.1 mph - N/A   Clear
6:52 PM 33.1 °F 25.5 °F 26.1 °F 75% 30.22 in 10.0 mi WNW 9.2 mph - N/A   Clear
7:52 PM 33.1 °F 26.1 °F 25.0 °F 72% 30.22 in 10.0 mi NW 8.1 mph - N/A   Clear
8:52 PM 28.9 °F 21.9 °F 24.1 °F 82% 30.24 in 10.0 mi WNW 6.9 mph - N/A   Clear
9:52 PM 28.0 °F 21.7 °F 23.0 °F 81% 30.26 in 10.0 mi West 5.8 mph - N/A   Clear
10:52 PM 27.0 °F 20.5 °F 23.0 °F 85% 30.27 in 10.0 mi West 5.8 mph - N/A   Clear
11:52 PM 27.0 °F 21.6 °F 23.0 °F 85% 30.27 in 10.0 mi West 4.6 mph - N/A   Clear